Location: Krakow
(50.0830°N, 19.9170°E)
Time: 07:59:32
(UTC+02:00)

Tiros 1 despin weight - Pass Details

Date: 17 March 2026
Orbit: 555 x 592 km, 48.2° (Epoch: 18 April)

Event Time Altitude Azimuth Distance (km) Brightness Sun altitude
Rises 07:30:59 0° 272° (W) 2,809 ? 15.0°
Reaches altitude 10° 07:33:17 10° 270° (W) 1,903 ? 15.4°
Maximum altitude 07:37:36 64° 189° (S) 641 ? 16.0°
Drops below altitude 10° 07:41:52 10° 108° (ESE) 1,877 ? 16.6°
Sets 07:44:07 0° 105° (ESE) 2,768 ? 17.0°
